ATLAS V CENTAUR R/B, 41329

Orbit data source: Space-Track

ATLAS V CENTAUR R/B, 41329 is space debris in MEO originally from a launch on Fri, 05 Feb 2016 UTC launched from the Air Force Eastern Test Range (AFETR). Debris objects in space refer to the collection of defunct objects orbiting the Earth. Examples of debris include non-operational satellites, rocket bodies, and fragments generated from explosions, collisions, or faulty payload assembly.

Loading next visibility...
Identifier
41329, 2016-007B
Orbit
MEO
Country
Flag of USUS
Related business
Flag of USUnited Launch Alliance/Lockheed Martin (US)
Manufacturer
LMSS Denver
Mission
Spacecraft
Bus & Motor
CENTAUR SEC, RL10C-1
Mass
~2,020 kg wet, 2,020 kg dry
Launch date (UTC)
2016-02-05 (10 years ago)
Launch vehicle
Unknown
Launch site
Air Force Eastern Test Range (AFETR)
Object type
Payload
Rocket body
Debris
Shape & HBR
Cyl + 1 Nozzle, 5.8 m
Radar Cross Section
32.260 m², Large (>1 m²)

Expand to show TLE details & history
Last TLE update: 2 days ago

TLE from 2 days ago
0 ATLAS V CENTAUR R/B
1 41329U 16007B   26170.98542580  .00000004  00000-0  00000+0 0  9993
2 41329  55.7106 103.9001 0109777 356.6849   3.2250  1.91799282 72662
Epoch: 2026-06-19T23:39Z
TLE epoch observation values (Epoch: 2026-06-19T23:39:00.789Z)
Latitude
-0°
Longitude
-159.06162°
Altitude
20,685.328 km
Speed
3.859 km/s
True Right ascension
06h 55m 35s
True Declination
0° 00' 00"
Sunlit
Object was in daylight at epoch
Visualization orbit readout
Latitude
Unknown
Longitude
Unknown
Altitude
Unknown
Speed
Unknown
Apparent Right ascension
Unknown
Apparent Declination
Unknown
Sunlit
N/A
Visualization observer readout
Local Sidereal Time
21:35:13
Azimuth
Unknown
Elevation
Unknown
Doppler factor
Unknown
Orbital elements
Apogee altitude
21,285.658 km
Perigee altitude
20,684.883 km
Semi-major axis
27,363.408 km
Eccentricity
0.01098
Inclination
55.7106°
RAAN
103.9001°
Arg. of periapsis
356.6849°
True anomaly
3.29675°
Mean anomaly
3.225°
Eccentric anomaly
3.26078°
Mean motion
0.4795 °/min
Orbital period
750.78 mins
BSTAR
0
Loading maneuver chart data...
Computing Atmospheric mass density...
Loading historical data...
Loading historical data...
Loading historical data...
Loading historical data...
Loading historical data...
Loading historical data...
Loading historical data...
Other satellites on launch #7 in the year 2016 (2016-02-05 UTC)

Documentation

Showing up to 5 results
|